Tracking 19145 objects as of 25-Apr-2018
HD Live streaming from Space Station
objects crossing your sky now

SAFIR 2

Track SAFIR 2 now!
10-day predictions
SAFIR 2 is classified as:


NORAD ID: 25399
Int'l Code: 1998-043F
Perigee: 814.8 km
Apogee: 819.1 km
Inclination: 98.6 °
Period: 101.1 minutes
Semi major axis: 7187 km
RCS: 0.3985 m2 (medium)
Launch date: July 10, 1998
Source: Germany (GER)
Launch site: TYURATAM MISSILE AND SPACE COMPLEX (TTMTR)
Uplink (MHz):
Downlink (MHz):
Beacon (MHz): 2401.900
Mode: 9600bps FSK
Call sign: DP1AIS
Status: Inactive

aabbcc
Your satellite tracking list
Your tracking list is empty




NASA's NSSDC Master Catalog

Two Line Element Set (TLE):
1 25399U 98043F   18114.80626524 -.00000004  00000-0  16750-4 0  9998
2 25399  98.6131  57.2010 0002947  89.6813 270.4704 14.24611764 28639
Source of the keplerian elements: AFSPC